{"data":{"norad_id":59684,"intl_designator":"2024-086C","name":"STARLINK-32091","alt_names":[],"object_type":"PAYLOAD","status":"ACTIVE","operator":null,"country":"US","launch_date":"2024-05-08","launch_site_code":"AFETR","launch_vehicle":null,"mission":null,"orbit_class":"UNKNOWN","rcs_meters":null,"size_class":null,"mass_kg":null,"dimensions":null,"purposes":["comms"],"wikipedia_slug":null,"has_3d_model":false,"image_url":null,"decayed_at":null,"tle_current":{"epoch":"2026-05-24T13:39:42.680736Z","epoch_age_seconds":119174,"freshness":"FRESH","line1":"1 59684U 24086C   26144.56924399 -.00000286  00000+0 -85377-6 0  9999","line2":"2 59684  43.0009 343.8729 0001570 274.6297  85.4375 15.27580131115817","mean_motion":15.27580131,"eccentricity":0.000157,"inclination_deg":43.0009,"raan_deg":343.8729,"arg_perigee_deg":274.6297,"mean_anomaly_deg":85.4375,"bstar":-8.5377e-7,"rev_number":11581,"period_min":94.266740629661,"perigee_km":481.97149762306,"apogee_km":484.12590993405,"semimajor_km":6861.1857037786,"source":"CELESTRAK","updated_at":"2026-05-25T13:38:19.023266Z"}}}